Satellite: NOAA-11
Catalog number: 19531
Epoch time:      09007.82265385
Element set:     466
Inclination:      098.7904 deg
RA of node:       100.2354 deg
Eccentricity:    0.0011164
Arg of perigee:   202.2457 deg
Mean anomaly:     157.8237 deg
Mean motion:   14.14883874 rev/day
Decay rate:      -2.46e-06 rev/day^2
Epoch rev:            4684
Checksum:              305

Satellite: NOAA-12
Catalog number: 21263
Epoch time:      09006.95805527
Element set:    0985
Inclination:      098.7720 deg
RA of node:       014.9459 deg
Eccentricity:    0.0011517
Arg of perigee:   254.3739 deg
Mean anomaly:     105.6170 deg
Mean motion:   14.25561643 rev/day
Decay rate:        2.4e-07 rev/day^2
Epoch rev:           91742
Checksum:              305

Satellite: MET-3/5
Catalog number: 21655
Epoch time:      09006.94269682
Element set:    0653
Inclination:      082.5535 deg
RA of node:       320.4202 deg
Eccentricity:    0.0012251
Arg of perigee:   222.0200 deg
Mean anomaly:     137.9964 deg
Mean motion:   13.17017883 rev/day
Decay rate:        5.1e-07 rev/day^2
Epoch rev:           83640
Checksum:              278

Satellite: MET-2/21
Catalog number: 22782
Epoch time:      09006.91877798
Element set:    0345
Inclination:      082.5503 deg
RA of node:       309.9449 deg
Eccentricity:    0.0024080
Arg of perigee:   079.2531 deg
Mean anomaly:     281.1333 deg
Mean motion:   13.83633620 rev/day
Decay rate:        7.1e-07 rev/day^2
Epoch rev:           77530
Checksum:              308

Satellite: OKEAN-4
Catalog number: 23317
Epoch time:      09008.56066499
Element set:     795
Inclination:      082.5399 deg
RA of node:       123.4506 deg
Eccentricity:    0.0022400
Arg of perigee:   166.4496 deg
Mean anomaly:     193.7331 deg
Mean motion:   14.82666300 rev/day
Decay rate:       2.74e-06 rev/day^2
Epoch rev:           76871
Checksum:              319

Satellite: NOAA-14
Catalog number: 23455
Epoch time:      09006.66720456
Element set:    0466
Inclination:      098.9266 deg
RA of node:       084.8132 deg
Eccentricity:    0.0008552
Arg of perigee:   289.0286 deg
Mean anomaly:     070.9955 deg
Mean motion:   14.13755561 rev/day
Decay rate:       -9.8e-07 rev/day^2
Epoch rev:           72310
Checksum:              327

Satellite: NOAA-15
Catalog number: 25338
Epoch time:      09008.00438538
Element set:     766
Inclination:      098.5730 deg
RA of node:       000.8361 deg
Eccentricity:    0.0010894
Arg of perigee:   160.1839 deg
Mean anomaly:     199.9774 deg
Mean motion:   14.24741111 rev/day
Decay rate:       1.85e-06 rev/day^2
Epoch rev:           55396
Checksum:              318

Satellite: RESURS
Catalog number: 25394
Epoch time:      09008.74943908
Element set:     113
Inclination:      098.3601 deg
RA of node:       049.0500 deg
Eccentricity:    0.0001565
Arg of perigee:   353.2846 deg
Mean anomaly:     006.8312 deg
Mean motion:   14.24178317 rev/day
Decay rate:       -9.0e-08 rev/day^2
Epoch rev:           54570
Checksum:              282

Satellite: FENGYUN1
Catalog number: 25730
Epoch time:      09008.81173930
Element set:     657
Inclination:      098.7430 deg
RA of node:       343.8571 deg
Eccentricity:    0.0022691
Arg of perigee:   308.8661 deg
Mean anomaly:     051.0485 deg
Mean motion:   14.07919194 rev/day
Decay rate:        8.4e-07 rev/day^2
Epoch rev:           49789
Checksum:              326

Satellite: OKEAN-0
Catalog number: 25860
Epoch time:      09008.86904590
Element set:     569
Inclination:      097.7695 deg
RA of node:       356.5369 deg
Eccentricity:    0.0001245
Arg of perigee:   038.7719 deg
Mean anomaly:     321.3590 deg
Mean motion:   14.73552993 rev/day
Decay rate:        2.8e-07 rev/day^2
Epoch rev:           50968
Checksum:              346

Satellite: NOAA-16
Catalog number: 26536
Epoch time:      09008.06398156
Element set:     242
Inclination:      099.1726 deg
RA of node:       007.8953 deg
Eccentricity:    0.0010682
Arg of perigee:   014.9053 deg
Mean anomaly:     345.2454 deg
Mean motion:   14.12505822 rev/day
Decay rate:      -1.17e-06 rev/day^2
Epoch rev:           42769
Checksum:              302

Satellite: NOAA-17
Catalog number: 27453
Epoch time:      09006.95960001
Element set:    0253
Inclination:      098.5099 deg
RA of node:       071.4127 deg
Eccentricity:    0.0011100
Arg of perigee:   230.7468 deg
Mean anomaly:     129.2692 deg
Mean motion:   14.24030904 rev/day
Decay rate:        1.6e-07 rev/day^2
Epoch rev:           33980
Checksum:              278

Satellite: NOAA-18
Catalog number: 28654
Epoch time:      09006.68136719
Element set:    0735
Inclination:      098.8916 deg
RA of node:       311.3189 deg
Eccentricity:    0.0015198
Arg of perigee:   098.2154 deg
Mean anomaly:     262.0733 deg
Mean motion:   14.11223988 rev/day
Decay rate:       3.56e-06 rev/day^2
Epoch rev:           18717
Checksum:              335

/EX
SB KEPS @ AMSAT  $ORB09008.M
Orbital Elements  09008.MISC

HR AMSAT ORBITAL ELEMENTS FOR MANNED AND MISCELLANEOUS SATELLITES
FROM WA5QGD FORT WORTH,TX January 8, 2009
Send Subscribe/unsubscribe to KEPS at 
http://www.amsat.org/mailman/listinfo/keps
BID: ORB09008.M
TO ALL RADIO AMATEURS BT

Satellite: HUBBLE
Catalog number: 20580
Epoch time:      09006.62127251
Element set:    0313
Inclination:      028.4695 deg
RA of node:       076.3133 deg
Eccentricity:    0.0003408
Arg of perigee:   026.9989 deg
Mean anomaly:     333.0778 deg
Mean motion:   15.00444818 rev/day
Decay rate:       3.20e-06 rev/day^2
Epoch rev:           82556
Checksum:              284

Satellite: PO-34
Catalog number: 25520
Epoch time:      09006.91096258
Element set:    0162
Inclination:      028.4611 deg
RA of node:       254.7908 deg
Eccentricity:    0.0005165
Arg of perigee:   345.2726 deg
Mean anomaly:     014.7705 deg
Mean motion:   15.17280245 rev/day
Decay rate:       3.70e-06 rev/day^2
Epoch rev:           56413
Checksum:              286

Satellite: ISS
Catalog number: 25544
Epoch time:      09006.87881944
Element set:    0015
Inclination:      051.6428 deg
RA of node:       052.6262 deg
Eccentricity:    0.0007025
Arg of perigee:   167.1222 deg
Mean anomaly:     175.4681 deg
Mean motion:   15.72061961 rev/day
Decay rate:     1.2711e-04 rev/day^2
Epoch rev:           58057
Checksum:              288

Satellite: CO-58
Catalog number: 28895
Epoch time:      09008.62713057
Element set:     205
Inclination:      098.0803 deg
RA of node:       263.5303 deg
Eccentricity:    0.0018838
Arg of perigee:   125.3882 deg
Mean anomaly:     234.9072 deg
Mean motion:   14.59731250 rev/day
Decay rate:        8.5e-07 rev/day^2
Epoch rev:           17045
Checksum:              312

Satellite: FALCON
Catalog number: 30776
Epoch time:      09006.43547985
Element set:    0485
Inclination:      035.4349 deg
RA of node:       000.7082 deg
Eccentricity:    0.0001686
Arg of perigee:   318.6051 deg
Mean anomaly:     041.4537 deg
Mean motion:   15.03141255 rev/day
Decay rate:       3.15e-06 rev/day^2
Epoch rev:           10074
Checksum:              271

Satellite: MAST
Catalog number: 31126
Epoch time:      09008.59916096
Element set:     499
Inclination:      098.0142 deg
RA of node:       070.5299 deg
Eccentricity:    0.0095603
Arg of perigee:   055.5270 deg
Mean anomaly:     305.4966 deg
Mean motion:   14.53470691 rev/day
Decay rate:       1.13e-06 rev/day^2
Epoch rev:            9185
Checksum:              310

Satellite: CAPE1
Catalog number: 31130
Epoch time:      09008.82426214
Element set:     498
Inclination:      098.0157 deg
RA of node:       069.2883 deg
Eccentricity:    0.0103869
Arg of perigee:   059.3177 deg
Mean anomaly:     301.8201 deg
Mean motion:   14.52023715 rev/day
Decay rate:       1.01e-06 rev/day^2
Epoch rev:            9156
Checksum:              278

Satellite: COMPASS
Catalog number: 32787
Epoch time:      09008.71436630
Element set:     247
Inclination:      097.9654 deg
RA of node:       073.7277 deg
Eccentricity:    0.0015637
Arg of perigee:   186.8053 deg
Mean anomaly:     173.2934 deg
Mean motion:   14.81527992 rev/day
Decay rate:        1.2e-07 rev/day^2
Epoch rev:            3783
Checksum:              324

Satellite: AAUSAT2
Catalog number: 32788
Epoch time:      09008.15493659
Element set:     248
Inclination:      097.9664 deg
RA of node:       073.2071 deg
Eccentricity:    0.0015256
Arg of perigee:   189.1112 deg
Mean anomaly:     170.9830 deg
Mean motion:   14.81646432 rev/day
Decay rate:       4.96e-06 rev/day^2
Epoch rev:            3775
Checksum:              323

Satellite: DO-64
Catalog number: 32789
Epoch time:      09008.84771038
Element set:     260
Inclination:      097.9694 deg
RA of node:       073.9700 deg
Eccentricity:    0.0015723
Arg of perigee:   185.9410 deg
Mean anomaly:     174.1606 deg
Mean motion:   14.81582286 rev/day
Decay rate:       1.43e-06 rev/day^2
Epoch rev:            3785
Checksum:              329

Satellite: CO-66
Catalog number: 32791
Epoch time:      09006.10527293
Element set:    0244
Inclination:      097.9682 deg
RA of node:       071.1616 deg
Eccentricity:    0.0015845
Arg of perigee:   192.8951 deg
Mean anomaly:     167.1859 deg
Mean motion:   14.81370384 rev/day
Decay rate:       1.72e-06 rev/day^2
Epoch rev:           03741
Checksum:              320

Satellite: RS-30
Catalog number: 32953
Epoch time:      09006.48591155
Element set:    0203
Inclination:      082.5017 deg
RA of node:       357.1626 deg
Eccentricity:    0.0019184
Arg of perigee:   167.5478 deg
Mean anomaly:     192.6078 deg
Mean motion:   12.42999279 rev/day
Decay rate:        1.0e-07 rev/day^2
Epoch rev:           02830
Checksum:              309

/EX





More information about the Keps mailing list